�������l�o���
Date,Time,MP-1(��Sv/h),MP-2(��Sv/h),MP-3(��Sv/h),MP-4(��Sv/h),MP-5(��Sv/h),MP-6(��Sv/h),MP-7(��Sv/h),MP-8(��Sv/h),����,����(m/s),���J
2020/06/17,00:00,0.712,1.018,0.648,1.252,0.896,0.405,0.701,0.653,��,6.7,��
2020/06/17,00:10,0.712,1.017,0.647,1.250,0.897,0.406,0.701,0.653,�k��,5.8,��
2020/06/17,00:20,0.712,1.019,0.647,1.252,0.896,0.404,0.699,0.651,���k��,5.7,��
2020/06/17,00:30,0.711,1.017,0.647,1.252,0.896,0.406,0.701,0.654,���k��,6.6,��
2020/06/17,00:40,0.711,1.016,0.646,1.252,0.897,0.407,0.700,0.653,���k��,8.5,��
2020/06/17,00:50,0.711,1.016,0.648,1.251,0.898,0.405,0.701,0.652,���k��,8.2,��
2020/06/17,01:00,0.711,1.015,0.646,1.252,0.897,0.405,0.699,0.654,���k��,7.4,��
2020/06/17,01:10,0.713,1.018,0.647,1.254,0.896,0.405,0.701,0.653,�k��,6.7,��
2020/06/17,01:20,0.713,1.017,0.646,1.252,0.896,0.404,0.700,0.652,���k��,4.6,��
2020/06/17,01:30,0.714,1.016,0.648,1.251,0.897,0.403,0.700,0.651,�k��,4.3,��
2020/06/17,01:40,0.711,1.016,0.648,1.253,0.896,0.403,0.700,0.652,�k��,2.2,��
2020/06/17,01:50,0.711,1.017,0.646,1.252,0.896,0.403,0.701,0.652,�k�k��,2.8,��
2020/06/17,02:00,0.712,1.017,0.647,1.253,0.896,0.405,0.700,0.651,�k��,3.5,��
2020/06/17,02:10,0.711,1.015,0.647,1.249,0.897,0.405,0.700,0.653,�k��,5.2,��
2020/06/17,02:20,0.713,1.016,0.647,1.251,0.897,0.405,0.701,0.653,���k��,6.8,��
2020/06/17,02:30,0.710,1.014,0.647,1.251,0.898,0.404,0.700,0.651,���k��,5.3,��
2020/06/17,02:40,0.712,1.017,0.646,1.251,0.894,0.405,0.700,0.651,���k��,5.3,��
2020/06/17,02:50,0.711,1.016,0.646,1.252,0.897,0.406,0.699,0.652,���k��,5.7,��
2020/06/17,03:00,0.711,1.019,0.647,1.249,0.897,0.405,0.700,0.651,��,7.7,��
2020/06/17,03:10,0.710,1.017,0.646,1.251,0.897,0.404,0.700,0.653,��,7.4,��
2020/06/17,03:20,0.710,1.016,0.645,1.250,0.895,0.404,0.699,0.652,���k��,6.5,��
2020/06/17,03:30,0.711,1.015,0.645,1.253,0.899,0.404,0.700,0.654,���k��,5.3,��
2020/06/17,03:40,0.709,1.016,0.642,1.253,0.896,0.405,0.699,0.651,�k��,6.3,��
2020/06/17,03:50,0.711,1.018,0.646,1.252,0.896,0.403,0.698,0.653,�k�k��,5.1,��
2020/06/17,04:00,0.710,1.017,0.645,1.253,0.897,0.404,0.699,0.652,�k��,6.3,��
2020/06/17,04:10,0.710,1.017,0.644,1.252,0.896,0.403,0.699,0.652,�k��,6.6,��
2020/06/17,04:20,0.710,1.016,0.644,1.252,0.896,0.406,0.698,0.652,���k��,10.0,��
2020/06/17,04:30,0.713,1.015,0.645,1.253,0.898,0.404,0.700,0.652,���k��,7.3,��
2020/06/17,04:40,0.712,1.017,0.645,1.254,0.897,0.405,0.698,0.654,���k��,8.9,��
2020/06/17,04:50,0.711,1.016,0.645,1.254,0.896,0.404,0.699,0.651,���k��,7.7,��
2020/06/17,05:00,0.711,1.014,0.646,1.252,0.897,0.404,0.698,0.652,���k��,6.8,��
2020/06/17,05:10,0.712,1.017,0.646,1.252,0.898,0.404,0.699,0.653,�k��,6.9,��
2020/06/17,05:20,0.712,1.016,0.644,1.254,0.898,0.404,0.699,0.652,���k��,8.4,��
2020/06/17,05:30,0.711,1.014,0.647,1.252,0.896,0.403,0.698,0.653,���k��,8.1,��
2020/06/17,05:40,0.710,1.017,0.645,1.251,0.897,0.405,0.698,0.654,�k��,7.1,��
2020/06/17,05:50,0.710,1.014,0.646,1.253,0.895,0.403,0.698,0.653,�k��,5.5,��
2020/06/17,06:00,0.712,1.015,0.645,1.254,0.896,0.403,0.701,0.653,�k��,6.9,��
2020/06/17,06:10,0.710,1.011,0.644,1.254,0.896,0.404,0.700,0.654,���k��,7.4,��
2020/06/17,06:20,0.712,1.011,0.644,1.253,0.896,0.403,0.698,0.652,���k��,6.3,��
2020/06/17,06:30,0.711,1.013,0.644,1.254,0.892,0.404,0.699,0.653,���k��,7.2,��
2020/06/17,06:40,0.709,1.012,0.645,1.255,0.894,0.404,0.700,0.653,�k��,6.9,��
2020/06/17,06:50,0.712,1.013,0.645,1.253,0.896,0.404,0.699,0.652,�k��,3.7,��
2020/06/17,07:00,0.710,1.014,0.644,1.253,0.894,0.401,0.698,0.653,�k��,3.6,��
2020/06/17,07:10,0.711,1.017,0.644,1.253,0.898,0.401,0.699,0.653,�k��,4.6,��
2020/06/17,07:20,0.711,1.013,0.645,1.254,0.897,0.399,0.698,0.654,�k��,4.8,��
2020/06/17,07:30,0.710,1.014,0.645,1.252,0.896,0.401,0.697,0.653,�k��,1.9,��
2020/06/17,07:40,0.710,1.014,0.645,1.253,0.895,0.400,0.699,0.653,�k�k��,1.7,��
2020/06/17,07:50,0.711,1.013,0.645,1.252,0.896,0.400,0.698,0.651,�k,1.7,��
2020/06/17,08:00,0.711,1.015,0.642,1.253,0.896,0.400,0.698,0.650,�k,3.2,��
2020/06/17,08:10,0.712,1.010,0.644,1.255,0.895,0.402,0.699,0.651,�k�k��,3.1,��
2020/06/17,08:20,0.713,1.014,0.643,1.253,0.896,0.402,0.699,0.651,�k�k��,5.4,��
2020/06/17,08:30,0.712,1.011,0.645,1.255,0.895,0.402,0.697,0.650,�k�k��,5.4,��
2020/06/17,08:40,0.710,1.011,0.643,1.251,0.895,0.403,0.698,0.651,�k��,6.8,��
2020/06/17,08:50,0.712,1.013,0.643,1.252,0.895,0.401,0.698,0.649,�k�k��,0.9,��
2020/06/17,09:00,0.710,1.013,0.643,1.253,0.894,0.402,0.699,0.650,���쓌,3.4,��
2020/06/17,09:10,0.711,1.011,0.644,1.256,0.897,0.400,0.698,0.652,���k��,3.6,��
2020/06/17,09:20,0.712,1.011,0.644,1.253,0.897,0.400,0.698,0.650,���k��,3.7,��
2020/06/17,09:30,0.709,1.009,0.642,1.256,0.899,0.402,0.697,0.651,���k��,3.1,��
2020/06/17,09:40,0.711,1.013,0.645,1.255,0.899,0.400,0.698,0.650,��,5.1,��
2020/06/17,09:50,0.710,1.012,0.643,1.255,0.897,0.400,0.698,0.651,���k��,5.0,��
2020/06/17,10:00,0.710,1.013,0.644,1.256,0.898,0.399,0.698,0.650,��,5.5,��
2020/06/17,10:10,0.711,1.013,0.644,1.257,0.900,0.399,0.699,0.651,��,6.4,��
2020/06/17,10:20,0.711,1.011,0.644,1.256,0.900,0.398,0.698,0.650,���k��,4.2,��
2020/06/17,10:30,0.711,1.012,0.643,1.255,0.897,0.401,0.698,0.650,���쓌,5.5,��
2020/06/17,10:40,0.711,1.013,0.645,1.257,0.898,0.400,0.699,0.651,���쓌,4.8,��
2020/06/17,10:50,0.712,1.013,0.644,1.255,0.900,0.401,0.699,0.649,���쓌,5.4,��
2020/06/17,11:00,0.712,1.014,0.645,1.256,0.898,0.400,0.701,0.651,���쓌,3.8,��
2020/06/17,11:10,0.712,1.015,0.646,1.255,0.898,0.399,0.701,0.653,���쓌,3.5,��
2020/06/17,11:20,0.712,1.013,0.646,1.253,0.900,0.401,0.700,0.651,���쓌,3.9,��
2020/06/17,11:30,0.711,1.016,0.645,1.254,0.900,0.400,0.699,0.651,���쓌,3.3,��
2020/06/17,11:40,0.712,1.018,0.646,1.251,0.899,0.400,0.701,0.649,�쓌,3.8,��
2020/06/17,11:50,0.711,1.018,0.645,1.255,0.900,0.400,0.700,0.651,�쓌,3.9,��
2020/06/17,12:00,0.712,1.019,0.646,1.253,0.901,0.400,0.699,0.650,�쓌,4.2,��
2020/06/17,12:10,0.713,1.021,0.645,1.254,0.902,0.399,0.699,0.651,�쓌,5.3,��
2020/06/17,12:20,0.712,1.022,0.646,1.253,0.901,0.400,0.701,0.651,�쓌,4.7,��
2020/06/17,12:30,0.714,1.022,0.647,1.251,0.902,0.401,0.701,0.652,��쓌,3.9,��
2020/06/17,12:40,0.713,1.023,0.639,1.254,0.901,0.400,0.701,0.650,�쓌,4.2,��
2020/06/17,12:50,0.713,1.023,0.644,1.254,0.903,0.402,0.699,0.652,�쓌,4.5,��
2020/06/17,13:00,0.714,1.021,0.651,1.255,0.902,0.402,0.701,0.650,�쓌,4.8,��
2020/06/17,13:10,0.712,1.021,0.653,1.254,0.904,0.401,0.699,0.650,��쓌,5.4,��
2020/06/17,13:20,0.712,1.019,0.651,1.254,0.901,0.401,0.702,0.651,��쓌,5.0,��
2020/06/17,13:30,0.713,1.019,0.650,1.253,0.903,0.402,0.701,0.650,��쓌,5.0,��
2020/06/17,13:40,0.713,1.020,0.650,1.252,0.904,0.401,0.700,0.652,��쓌,5.7,��
2020/06/17,13:50,0.713,1.019,0.645,1.254,0.904,0.404,0.701,0.652,��쓌,4.7,��
2020/06/17,14:00,0.714,1.019,0.645,1.254,0.903,0.402,0.702,0.652,��쓌,4.1,��
2020/06/17,14:10,0.713,1.020,0.646,1.255,0.903,0.401,0.701,0.651,��쓌,5.2,��
2020/06/17,14:20,0.713,1.022,0.645,1.256,0.901,0.402,0.702,0.651,��쓌,5.2,��
2020/06/17,14:30,0.713,1.023,0.644,1.254,0.903,0.403,0.699,0.651,��쓌,4.4,��
2020/06/17,14:40,0.713,1.022,0.652,1.254,0.903,0.403,0.701,0.650,��쓌,4.6,��
2020/06/17,14:50,0.716,1.020,0.652,1.255,0.903,0.403,0.701,0.651,��쓌,4.7,��
2020/06/17,15:00,0.713,1.023,0.651,1.254,0.903,0.403,0.700,0.651,��쓌,5.5,��
2020/06/17,15:10,0.714,1.018,0.648,1.258,0.902,0.403,0.701,0.651,��쓌,4.9,��
2020/06/17,15:20,0.713,1.023,0.645,1.256,0.902,0.403,0.700,0.652,��쓌,5.4,��
2020/06/17,15:30,0.714,1.022,0.646,1.255,0.903,0.403,0.700,0.652,��쓌,4.7,��
2020/06/17,15:40,0.713,1.023,0.645,1.256,0.903,0.402,0.701,0.652,�쓌,4.3,��
2020/06/17,15:50,0.715,1.025,0.646,1.256,0.903,0.403,0.700,0.652,��쓌,5.1,��
2020/06/17,16:00,0.715,1.027,0.647,1.254,0.902,0.404,0.698,0.650,��쓌,5.8,��
2020/06/17,16:10,0.713,1.024,0.645,1.258,0.903,0.403,0.699,0.652,��쓌,5.3,��
2020/06/17,16:20,0.714,1.025,0.647,1.258,0.903,0.402,0.699,0.649,��쓌,4.9,��
2020/06/17,16:30,0.714,1.027,0.648,1.255,0.903,0.403,0.699,0.651,��쓌,4.7,��
2020/06/17,16:40,0.712,1.028,0.646,1.258,0.903,0.403,0.699,0.652,��,4.8,��
2020/06/17,16:50,0.714,1.025,0.647,1.259,0.903,0.403,0.699,0.651,��,5.1,��
2020/06/17,17:00,0.714,1.028,0.648,1.259,0.902,0.404,0.700,0.652,��쓌,3.3,��
2020/06/17,17:10,0.714,1.027,0.647,1.259,0.902,0.404,0.700,0.652,��,6.1,��
2020/06/17,17:20,0.714,1.027,0.648,1.259,0.904,0.404,0.701,0.653,��쓌,5.8,��
2020/06/17,17:30,0.715,1.029,0.648,1.258,0.904,0.403,0.700,0.654,��쓌,5.3,��
2020/06/17,17:40,0.715,1.028,0.646,1.260,0.904,0.404,0.701,0.655,��쓌,6.6,��
2020/06/17,17:50,0.713,1.028,0.648,1.259,0.904,0.404,0.701,0.654,��쓌,6.5,��
2020/06/17,18:00,0.713,1.028,0.648,1.263,0.904,0.405,0.700,0.654,��쓌,7.0,��
2020/06/17,18:10,0.713,1.027,0.649,1.258,0.901,0.405,0.702,0.654,��쓌,7.4,��
2020/06/17,18:20,0.713,1.028,0.646,1.262,0.903,0.403,0.701,0.653,��쓌,6.3,��
2020/06/17,18:30,0.715,1.029,0.647,1.261,0.905,0.404,0.700,0.655,��쓌,8.1,��
2020/06/17,18:40,0.713,1.028,0.648,1.262,0.905,0.404,0.701,0.653,��쓌,8.3,��
2020/06/17,18:50,0.714,1.028,0.647,1.262,0.905,0.403,0.703,0.654,��쓌,6.8,��
2020/06/17,19:00,0.713,1.027,0.646,1.261,0.904,0.404,0.701,0.653,��쓌,7.2,��
2020/06/17,19:10,0.714,1.029,0.645,1.261,0.905,0.403,0.700,0.654,��쓌,8.5,��
2020/06/17,19:20,0.713,1.026,0.646,1.259,0.906,0.404,0.702,0.654,��쓌,8.2,��
2020/06/17,19:30,0.713,1.027,0.647,1.262,0.905,0.404,0.702,0.654,��쓌,6.1,��
2020/06/17,19:40,0.713,1.029,0.648,1.261,0.904,0.405,0.703,0.654,��쓌,7.4,��
2020/06/17,19:50,0.715,1.027,0.650,1.264,0.905,0.404,0.701,0.655,��쓌,8.1,��
2020/06/17,20:00,0.714,1.029,0.648,1.261,0.904,0.405,0.703,0.653,��쓌,6.9,��
2020/06/17,20:10,0.716,1.031,0.648,1.261,0.906,0.405,0.702,0.653,��쓌,7.3,��
2020/06/17,20:20,0.715,1.030,0.648,1.261,0.906,0.405,0.701,0.654,��쓌,7.1,��
2020/06/17,20:30,0.715,1.030,0.649,1.262,0.906,0.404,0.701,0.654,��,6.9,��
2020/06/17,20:40,0.714,1.027,0.649,1.260,0.906,0.405,0.700,0.653,��,5.7,��
2020/06/17,20:50,0.715,1.029,0.648,1.262,0.908,0.405,0.701,0.654,��,3.8,��
2020/06/17,21:00,0.714,1.031,0.648,1.261,0.906,0.403,0.702,0.654,��,5.3,��
2020/06/17,21:10,0.717,1.030,0.649,1.258,0.907,0.406,0.702,0.652,��,5.4,��
2020/06/17,21:20,0.716,1.031,0.647,1.261,0.908,0.406,0.702,0.655,��,5.3,��
2020/06/17,21:30,0.715,1.029,0.649,1.260,0.907,0.406,0.702,0.655,��,6.2,��
2020/06/17,21:40,0.717,1.031,0.649,1.259,0.908,0.405,0.701,0.652,��,6.5,��
2020/06/17,21:50,0.715,1.028,0.649,1.258,0.906,0.405,0.703,0.655,��,6.1,��
2020/06/17,22:00,0.717,1.029,0.647,1.262,0.903,0.405,0.704,0.654,��,6.4,��
2020/06/17,22:10,0.717,1.030,0.648,1.261,0.908,0.405,0.703,0.655,��,6.8,��
2020/06/17,22:20,0.716,1.027,0.649,1.261,0.906,0.407,0.702,0.653,��,6.4,��
2020/06/17,22:30,0.716,1.030,0.649,1.260,0.908,0.405,0.704,0.655,��,6.7,��
2020/06/17,22:40,0.716,1.030,0.648,1.262,0.908,0.406,0.703,0.654,��,5.9,��
2020/06/17,22:50,0.717,1.031,0.648,1.259,0.906,0.405,0.701,0.654,��,5.3,��
2020/06/17,23:00,0.716,1.029,0.649,1.262,0.907,0.405,0.701,0.654,��,5.5,��
2020/06/17,23:10,0.715,1.030,0.648,1.262,0.906,0.406,0.703,0.653,��,7.1,��
2020/06/17,23:20,0.715,1.030,0.650,1.262,0.903,0.405,0.702,0.653,��,7.2,��
2020/06/17,23:30,0.714,1.031,0.649,1.260,0.906,0.405,0.702,0.653,��,7.5,��
2020/06/17,23:40,0.715,1.029,0.649,1.260,0.905,0.406,0.702,0.654,��,6.6,��
2020/06/17,23:50,0.715,1.030,0.649,1.262,0.905,0.406,0.702,0.655,��쐼,5.9,��
